[[{"header":{"parameterUnit":"m.s-1","parameterCategory":1,"la1":30.2991,"la2":30.254,"lo1":-89.0895,"lo2":-89.0444,"dy":0.0017,"dx":0.0017,"nx":28,"ny":28,"refTime":"2023-11-15T09:00:00:Z","depth":0,"parameterNumber":2,"parameterNumberName":"U-component_of_WINDS"},"data":[0,0,0,0,0,0,0,0,0,0,0,0,0,0,0,0,0,0,0,0,0,0,0,0,0,0,0,0,0,0,0,0,0,0,0,0,0,0,0,0,0,0,0,0,0,0,0,0,0,0,0,0,0,0,0,0,0,0,-4.8236,-4.8239,0,-4.8464,-4.8467,-4.847,-4.8452,-4.8448,-4.8445,-4.8441,-4.8677,-4.8686,-4.8696,0,0,0,0,0,0,0,0,0,0,0,0,0,-4.7786,-4.7795,-4.8236,-4.8239,-4.8242,-4.8464,-4.8467,-4.847,-4.8452,-4.8448,-4.8444,-4.844,-4.8674,-4.8685,-4.8697,0,0,0,0,0,0,0,0,0,0,0,0,0,-4.7995,-4.7798,-4.8235,-4.8259,-4.8264,-4.8463,-4.8467,-4.8471,-4.8453,-4.8448,-4.8443,-4.8438,-4.867,-4.8684,-4.8698,-4.8889,0,0,-4.8742,-4.8748,0,0,0,0,0,0,0,0,-4.7983,-4.8011,-4.8253,-4.8258,-4.8263,-4.8424,-4.8395,-4.8611,-4.8454,-4.8381,-4.8441,-4.8435,-4.8597,-4.8617,-4.8671,-4.89,-4.891,-4.8743,-4.8752,-4.8758,-4.8762,0,0,0,0,0,0,0,-4.7969,-4.8002,-4.8326,-4.8257,-4.8263,-4.8259,-4.8283,-4.8436,-4.8516,-4.8387,-4.8386,-4.8414,-4.8599,-4.8658,-4.8677,-4.8914,-4.8742,-4.8755,-4.8764,-4.8769,-4.9313,-4.9319,0,0,0,0,0,0,-4.7949,-4.799,-4.8319,-4.8333,-4.8108,-4.8272,-4.8298,-4.8378,-4.8514,-4.8529,-4.8418,-4.8412,-4.8636,-4.866,-4.8685,-4.892,-4.8758,-4.8771,-4.8779,-4.9308,-4.9315,-4.9321,0,0,0,0,0,0,-4.7939,-4.7978,-4.831,-4.8161,-4.8203,-4.8285,-4.8374,-4.8385,-4.8444,-4.8537,-4.8551,-4.8463,-4.8633,-4.8665,-4.8839,-4.8928,-4.8777,-4.879,-4.9301,-4.931,-4.9318,-4.9389,0,0,0,0,0,0,-4.7926,-4.7975,-4.8048,-4.8163,-4.8211,-4.846,-4.838,-4.8393,-4.8468,-4.8463,-4.8583,-4.8598,-4.8631,-4.8818,-4.8853,-4.8944,-4.8801,-4.9293,-4.9305,-4.9315,-4.938,-4.94,-4.9417,0,0,0,0,0,-4.791,-4.8058,-4.8051,-4.8091,-4.8304,-4.8465,-4.8492,-4.8527,-4.8475,-4.855,-4.861,-4.8594,-4.8912,-4.8836,-4.8875,-4.8972,-4.9288,-4.9301,-4.9314,-4.9371,-4.9396,-4.9416,0,0,0,0,0,0,-4.7951,-4.8074,-4.8067,-4.8257,-4.8351,-4.8461,-4.8556,-4.8551,-4.8662,-4.8652,-4.8691,-4.8718,-4.8894,-4.895,-4.8864,-4.9166,-4.9093,-4.9115,-4.9123,-4.9147,-4.9165,-4.9149,-4.8813,0,0,0,0,0,-4.7982,-4.8102,-4.8203,-4.8361,-4.8408,-4.8474,-4.8545,-4.8564,-4.8663,-4.8702,-4.8775,-4.8872,-4.8993,-4.9073,-4.919,-4.9387,-4.9414,-4.9473,-4.9492,-4.9506,-4.9526,-4.9636,-4.9665,-4.9365,-4.9365,-4.9365,0,0,-4.8048,-4.813,-4.8203,-4.8371,-4.8446,-4.857,-4.8508,-4.8641,-4.8734,-4.8722,-4.8892,-4.8949,-4.9059,-4.9246,-4.9332,-4.9299,-4.9614,-4.9523,-4.9535,-4.9546,-4.9653,-4.9681,-4.9707,-4.9374,-4.9372,-4.9371,0,0,-4.8232,-4.8305,-4.8446,-4.8522,-4.8635,-4.8679,-4.8712,-4.8824,-4.8862,-4.9032,-4.9026,-4.9138,-4.9346,-4.9426,-4.9493,-4.9708,-4.9699,-4.9745,-4.9844,-4.9951,-4.9975,-4.9996,-5.0075,-5.0103,-4.9764,-4.9764,-4.9764,0,-4.83,-4.8486,-4.8519,-4.8654,-4.8729,-4.8724,-4.8868,-4.894,-4.9086,-4.9139,-4.9098,-4.9361,-4.9435,-4.9642,-4.9694,-4.9748,-4.979,-4.9733,-4.9968,-4.999,-5.001,-5.0086,-5.0116,-4.9769,-4.9768,-4.9768,-4.9767,0,-4.8565,-4.8694,-4.8794,-4.8936,-4.9022,-4.9161,-4.9215,-4.9299,-4.931,-4.9358,-4.9532,-4.9621,-4.9756,-4.9806,-4.9818,-5.0016,-4.9992,-4.996,-4.9888,-5.0044,-5.0116,-5.0145,-4.9776,-4.9774,-4.9773,-4.9772,0,0,-4.8782,-4.894,-4.8977,-4.9042,-4.9167,-4.9268,-4.9407,-4.954,-4.9611,-4.9712,-4.9831,-5.0008,-4.998,-5.0057,-5.0078,-5.0172,-5.034,-5.0129,-5.0132,-5.0167,-5.0565,-5.059,-5.0623,-5.0333,-5.0339,-5.0343,-5.0557,0,-4.898,-4.9226,-4.926,-4.9479,-4.96,-4.9597,-4.9718,-4.9809,-4.9858,-4.9968,-5.0021,-5.0147,-5.0099,-5.0146,-5.0238,-5.0299,-5.042,-5.0284,-5.0446,-5.0452,-5.0421,-5.066,-5.0687,-5.0884,-5.0585,-5.059,-5.0593,0,-4.9244,-4.9353,-4.9584,-4.9694,-4.9746,-4.9855,-4.998,-5.0085,-5.0188,-5.0217,-5.0303,-5.0313,-5.0459,-5.0379,-5.0581,-5.0488,-5.0556,-5.0596,-5.0605,-5.0623,-5.0533,-5.0688,-5.0948,-5.0978,-5.0637,-5.0634,-5.0631,0,-4.9382,-4.9586,-4.9751,-4.9807,-4.9939,-5.0016,-5.0074,-5.0172,-5.0251,-5.036,-5.0412,-5.0536,-5.0605,-5.0702,-5.0746,-5.0684,-5.0947,-5.087,-5.0976,-5.0976,-5.1033,-5.103,-5.1311,-5.1073,-5.1073,-5.1072,-5.1072,0,-4.9601,-4.9743,-4.9815,-4.9917,-5.0076,-5.0114,-5.0271,-5.0327,-5.0415,-5.0528,-5.0533,-5.0639,-5.0689,-5.0804,-5.0839,-5.1002,-5.1033,-5.1062,-5.107,-5.1063,-5.1059,-5.111,-5.1098,-5.108,-5.1079,-5.1077,-5.1076,0,-4.9783,-4.9837,-5.0017,-5.0128,-5.0159,-5.0272,-5.0367,-5.0466,-5.0513,-5.0657,-5.0693,-5.0768,-5.0903,-5.0956,-5.1121,-5.1145,-5.1334,-5.133,-5.13,-5.1302,-5.1406,-5.1397,-5.1731,-5.1778,-5.1508,-5.151,-5.1512,0,-4.9921,-5.003,-5.0153,-5.0229,-5.029,-5.0413,-5.0493,-5.0534,-5.0618,-5.0744,-5.0829,-5.0964,-5.1074,-5.1291,-5.136,-5.1487,-5.1488,-5.1596,-5.1507,-5.1497,-5.1493,-5.1486,-5.1499,-5.1613,-5.1616,-5.1618,-5.162,0,-5.016,-5.0181,-5.0296,-5.0421,-5.0517,-5.0617,-5.0715,-5.0777,-5.0834,-5.0927,-5.1066,-5.1151,-5.132,-5.1455,-5.1586,-5.1647,-5.1645,-5.1647,-5.1679,-5.1674,-5.1653,-5.1669,-5.1347,-5.164,-5.1638,-5.1637,-5.1636,-5.1635,-5.0325,-5.0423,-5.0525,-5.0654,-5.0732,-5.0823,-5.0923,-5.0983,-5.1099,-5.124,-5.1257,-5.1406,-5.1508,-5.1683,-5.1751,-5.1869,-5.184,-5.1885,-5.1897,-5.1909,-5.1917,-5.1632,-5.1892,-5.1892,-5.1891,-5.1891,-5.189,0,-5.0566,-5.0632,-5.075,-5.0887,-5.0988,-5.0976,-5.1084,-5.117,-5.1301,-5.1396,-5.1505,-5.1665,-5.1796,-5.1876,-5.2008,-5.2087,-5.2089,-5.212,-5.2116,-5.2131,-5.1934,-5.1894,-5.2117,-5.2117,-5.2116,-5.2116,-5.2116,-5.2116,-5.0704,-5.087,-5.0903,-5.1108,-5.1173,-5.1319,-5.1382,-5.1467,-5.1544,-5.1722,-5.1831,-5.1882,-5.1972,-5.2111,-5.2231,-5.2251,-5.2301,-5.2335,-5.2353,-5.2168,-5.2144,-5.2122,-5.2086,-5.2344,-5.2345,-5.2541,-5.2543,-5.2544]},{"header":{"parameterUnit":"m.s-1","parameterCategory":1,"la1":30.2991,"la2":30.254,"lo1":-89.0895,"lo2":-89.0444,"dy":0.0017,"dx":0.0017,"nx":28,"ny":28,"refTime":"2023-11-15T09:00:00:Z","depth":0,"parameterNumber":3,"parameterNumberName":"V-component_of_WINDS"},"data":[0,0,0,0,0,0,0,0,0,0,0,0,0,0,0,0,0,0,0,0,0,0,0,0,0,0,0,0,0,0,0,0,0,0,0,0,0,0,0,0,0,0,0,0,0,0,0,0,0,0,0,0,0,0,0,0,0,0,-7.3495,-7.3494,0,-7.3456,-7.3456,-7.3456,-7.3322,-7.3319,-7.3316,-7.3314,-7.3278,-7.328,-7.3281,0,0,0,0,0,0,0,0,0,0,0,0,0,-7.3455,-7.3456,-7.3495,-7.3494,-7.3494,-7.3457,-7.3456,-7.3456,-7.3323,-7.3319,-7.3316,-7.3312,-7.3277,-7.3279,-7.3282,0,0,0,0,0,0,0,0,0,0,0,0,0,-7.345,-7.3457,-7.3495,-7.3423,-7.3416,-7.3457,-7.3456,-7.3455,-7.3324,-7.3319,-7.3315,-7.3311,-7.3277,-7.3279,-7.3282,-7.339,0,0,-7.329,-7.3292,0,0,0,0,0,0,0,0,-7.3451,-7.3452,-7.3434,-7.3428,-7.342,-7.3389,-7.3429,-7.3434,-7.3325,-7.3359,-7.3314,-7.3308,-7.3319,-7.3318,-7.3321,-7.3388,-7.3386,-7.3291,-7.3292,-7.3294,-7.3294,0,0,0,0,0,0,0,-7.3451,-7.3453,-7.348,-7.3434,-7.3426,-7.3393,-7.3388,-7.3429,-7.3365,-7.3356,-7.3346,-7.3343,-7.3314,-7.3318,-7.3319,-7.3386,-7.3291,-7.3293,-7.3295,-7.3296,-7.3539,-7.3543,0,0,0,0,0,0,-7.3461,-7.3454,-7.3481,-7.3478,-7.3425,-7.3398,-7.3391,-7.3404,-7.3364,-7.3354,-7.3347,-7.3337,-7.3316,-7.3316,-7.3317,-7.344,-7.3294,-7.3296,-7.3298,-7.3534,-7.354,-7.3545,0,0,0,0,0,0,-7.3461,-7.3465,-7.3482,-7.3463,-7.3463,-7.3403,-7.3419,-7.3406,-7.3409,-7.3357,-7.3346,-7.3363,-7.3312,-7.3313,-7.3372,-7.3437,-7.3297,-7.33,-7.3528,-7.3536,-7.3542,-7.3687,0,0,0,0,0,0,-7.346,-7.3466,-7.3506,-7.3465,-7.3465,-7.3538,-7.3423,-7.3408,-7.3414,-7.3401,-7.3369,-7.336,-7.3309,-7.3369,-7.3375,-7.3438,-7.3302,-7.3522,-7.3532,-7.354,-7.3676,-7.3698,-7.3717,0,0,0,0,0,-7.3459,-7.3549,-7.3508,-7.3512,-7.3513,-7.3542,-7.3541,-7.348,-7.342,-7.346,-7.3426,-7.3361,-7.3429,-7.3376,-7.3382,-7.3447,-7.3518,-7.3529,-7.3539,-7.3667,-7.3694,-7.3716,0,0,0,0,0,0,-7.36,-7.3542,-7.3497,-7.3575,-7.3564,-7.3519,-7.3567,-7.3511,-7.3518,-7.3505,-7.343,-7.3424,-7.3493,-7.3476,-7.3418,-7.3548,-7.3462,-7.3475,-7.3557,-7.3582,-7.3602,-7.3605,-7.3304,0,0,0,0,0,-7.3639,-7.3666,-7.3615,-7.369,-7.3686,-7.3628,-7.3638,-7.3592,-7.3578,-7.3573,-7.3544,-7.3533,-7.3552,-7.3566,-7.3581,-7.3673,-7.3664,-7.372,-7.3741,-7.3758,-7.3769,-7.3816,-7.384,-7.358,-7.358,-7.358,0,0,-7.3722,-7.3694,-7.3716,-7.3717,-7.3703,-7.3733,-7.3625,-7.3662,-7.3684,-7.3579,-7.3632,-7.3611,-7.3594,-7.367,-7.3702,-7.3657,-7.3839,-7.3771,-7.3785,-7.3788,-7.383,-7.3854,-7.3876,-7.3587,-7.3586,-7.3585,0,0,-7.3889,-7.3871,-7.393,-7.3918,-7.3897,-7.3858,-7.3872,-7.3835,-7.3816,-7.3868,-7.379,-7.3815,-7.385,-7.3841,-7.3841,-7.4003,-7.3943,-7.401,-7.4117,-7.4163,-7.4184,-7.4202,-7.4259,-7.4281,-7.4022,-7.4023,-7.4023,0,-7.3995,-7.4036,-7.3968,-7.4009,-7.4012,-7.3917,-7.3976,-7.3968,-7.3955,-7.3959,-7.3909,-7.3949,-7.3932,-7.4004,-7.4043,-7.4047,-7.4061,-7.4013,-7.4186,-7.4203,-7.4219,-7.4273,-7.4295,-7.4031,-7.403,-7.4029,-7.4028,0,-7.4167,-7.4197,-7.4248,-7.4235,-7.4243,-7.4294,-7.4234,-7.4251,-7.4204,-7.417,-7.4224,-7.4199,-7.4207,-7.4221,-7.4176,-7.4286,-7.4259,-7.42,-7.4111,-7.4253,-7.4303,-7.4323,-7.4043,-7.404,-7.4037,-7.4035,0,0,-7.4421,-7.4369,-7.4389,-7.4381,-7.4351,-7.4373,-7.442,-7.4426,-7.4441,-7.4435,-7.4472,-7.4503,-7.4447,-7.4447,-7.44,-7.4441,-7.4571,-7.4376,-7.4374,-7.4412,-7.469,-7.4736,-7.4761,-7.4531,-7.4534,-7.4537,-7.4692,0,-7.4579,-7.4653,-7.4593,-7.4679,-7.4705,-7.4615,-7.4656,-7.4642,-7.4612,-7.4631,-7.4598,-7.462,-7.4545,-7.4544,-7.4581,-7.4547,-7.4626,-7.4535,-7.4565,-7.4567,-7.4571,-7.4786,-7.4834,-7.4981,-7.4711,-7.4714,-7.4716,0,-7.4772,-7.4773,-7.4861,-7.4824,-7.4833,-7.487,-7.487,-7.4889,-7.4872,-7.4847,-7.4848,-7.479,-7.4833,-7.4747,-7.4806,-7.4746,-7.4755,-7.4741,-7.4745,-7.4745,-7.465,-7.4792,-7.5026,-7.5049,-7.4746,-7.4744,-7.4741,0,-7.4948,-7.4971,-7.5026,-7.5023,-7.4981,-7.5009,-7.4994,-7.4972,-7.4979,-7.498,-7.4984,-7.499,-7.4994,-7.5001,-7.4946,-7.4889,-7.5013,-7.4922,-7.4993,-7.4995,-7.5023,-7.5022,-7.5262,-7.503,-7.503,-7.5029,-7.5029,0,-7.513,-7.5187,-7.5104,-7.5139,-7.52,-7.513,-7.5194,-7.5169,-7.515,-7.5179,-7.5102,-7.513,-7.5057,-7.5078,-7.5036,-7.5091,-7.5094,-7.5075,-7.5063,-7.5082,-7.5084,-7.5086,-7.5074,-7.5035,-7.5034,-7.5033,-7.5032,0,-7.5336,-7.5283,-7.5337,-7.5293,-7.5283,-7.5331,-7.5293,-7.5323,-7.5287,-7.5324,-7.5329,-7.5273,-7.5294,-7.524,-7.5254,-7.5226,-7.5305,-7.5277,-7.531,-7.5301,-7.5375,-7.5369,-7.5625,-7.5654,-7.5404,-7.5407,-7.5409,0,-7.5456,-7.5497,-7.5457,-7.5469,-7.5457,-7.5479,-7.5485,-7.5419,-7.5429,-7.5412,-7.5444,-7.5458,-7.5466,-7.5503,-7.5465,-7.5475,-7.5446,-7.5535,-7.5447,-7.5464,-7.5447,-7.5445,-7.5448,-7.5553,-7.5556,-7.5559,-7.5561,0,-7.5673,-7.5644,-7.5655,-7.5657,-7.5667,-7.5666,-7.5659,-7.5675,-7.5603,-7.5618,-7.5637,-7.5643,-7.5656,-7.5671,-7.5672,-7.5657,-7.5598,-7.5589,-7.5605,-7.5625,-7.5642,-7.5633,-7.5359,-7.5583,-7.5581,-7.5579,-7.5578,-7.5577,-7.5839,-7.5871,-7.5847,-7.5862,-7.585,-7.5846,-7.5871,-7.5838,-7.5853,-7.5856,-7.5817,-7.5845,-7.5826,-7.5821,-7.5812,-7.5833,-7.5792,-7.5817,-7.5823,-7.583,-7.5842,-7.5639,-7.5833,-7.5832,-7.5832,-7.5831,-7.5831,0,-7.6051,-7.6031,-7.6046,-7.6038,-7.605,-7.5991,-7.5981,-7.5996,-7.602,-7.6007,-7.6016,-7.6038,-7.6052,-7.6015,-7.6023,-7.6048,-7.6021,-7.6052,-7.605,-7.6047,-7.5878,-7.5863,-7.6074,-7.6074,-7.6074,-7.6074,-7.6074,-7.6074,-7.6163,-7.6215,-7.6183,-7.6228,-7.6207,-7.6233,-7.6232,-7.6228,-7.6217,-7.6244,-7.6255,-7.623,-7.6207,-7.6213,-7.6224,-7.6212,-7.6219,-7.626,-7.624,-7.6083,-7.6059,-7.6036,-7.6021,-7.6262,-7.6262,-7.6406,-7.6407,-7.6408]}]]